Regional Weather Roundup
Issued by NWS

Home | Current Version | Previous Version | Graphics & Text | Print | Product List | Glossary On
Versions: 1 2 3 4 5 6 7 8 9 10 11 12 13 14 15 16 17 18 19 20 21 22 23 24 25 26 27 28 29 30 31 32 33 34 35 36 37 38 39 40 41 42 43 44 45 46 47 48 49 50
000
ASUS43 KLSX 211259
RWRMO

WEATHER SUMMARY FOR MISSOURI
NATIONAL WEATHER SERVICE SPRINGFIELD MO
800 AM CDT THU AUG 21 2014

NOTE: "FAIR" INDICATES FEW OR NO CLOUDS BELOW 12,000 FEET WITH NO
       SIGNIFICANT WEATHER AND/OR OBSTRUCTIONS TO VISIBILITY.
       CURRENT SKY AND/OR WEATHER CONDITIONS ARE NOT AVAILABLE FOR
       CHILLICOTHE AND FARMINGTON.

MOZ001>031-035>038-043-044-053-054-211400-
...NORTHERN AND WESTERN MISSOURI...

CITY           SKY/WX    TMP DP  RH WIND       PRES   REMARKS
KANSAS CTY INT PTSUNNY   79  70  74 S17G23    29.91R
KANSAS C DTWN  SUNNY     80  70  71 SW12      29.90R
LEE`S SUMMIT   SUNNY     77  70  79 S12       29.93R
ST JOSEPH      MOSUNNY   78  71  79 S12       29.87R
KIRKSVILLE     MOSUNNY   76  68  76 SW8       29.94R

$$
MOZ066>068-077>081-088>096-101>105-211400-
...SOUTHWEST MISSOURI...

CITY           SKY/WX    TMP DP  RH WIND       PRES   REMARKS
SPRINGFIELD    MOSUNNY   76  69  79 S13       30.02S
JOPLIN         SUNNY     78  70  76 S15       29.99R

$$
MOZ032>034-039>042-045>050-055>058-069>072-211400-
...CENTRAL MISSOURI...

CITY           SKY/WX    TMP DP  RH WIND       PRES   REMARKS
COLUMBIA       SUNNY     74  69  85 S10       29.97R
JEFFERSON CITY SUNNY     77  68  73 VRB3      29.98R
ROLLA          SUNNY     75  68  78 S10       30.00R
SEDALIA        SUNNY     78  69  73 S16       29.96R
OSAGE BEACH    SUNNY     75  68  78 S6        29.99S

$$
MOZ051-052-059>065-211400-
...EAST CENTRAL MISSOURI...

CITY           SKY/WX    TMP DP  RH WIND       PRES   REMARKS
ST LOUIS INTL  PTSUNNY   78  68  71 SW12      30.00R
SPIRIT OF STL  SUNNY     76  69  79 SW9       29.98R
ST CHARLES     SUNNY     74  71  91 CALM      29.98R

$$
MOZ072>076-082>087-097>100-106>115-211400-
...SOUTH CENTRAL AND SOUTHEAST MISSOURI...

CITY           SKY/WX    TMP DP  RH WIND       PRES   REMARKS
CAPE GIRARDEAU SUNNY     78  74  87 VRB3      30.04S
FARMINGTON     SUNNY     79  72  78 S10       30.06S
POPLAR BLUFF   SUNNY     76  71  85 S5        30.04S
WEST PLAINS    SUNNY     76  70  82 SW8       30.07F

$$



USA.gov is the U.S. government's official web portal to all federal, state and local government web resources and services.